Kbely Air Base

Jump to: basic info | weather | frequencies | runways | comments

Related pages: nearby airports | nearby navaids | notams | map

Basic information (top)

Codes: LKKB
Location: lon 50.121399, lat 14.543600, elev 939 ft / 286 m msl
Status: medium_airport

Weather (top)

Current conditions (rec'd 2014/10/31 20:00Z):

LKKB 312000Z 00000KT 6000 NSC 08/08 Q1026 NOSIG

Airport forecast (rec'd 2014/10/31 18:00Z):

TAF LKKB 311700Z 3118/0118 VRB02KT 5000 BR BKN030 
      TEMPO 1821/0108 2000 BR OVC005 PROB30 0100/0107 0400 FG VV002 
      BECMG 0110/0112 20005KT 8000 NSC

Frequencies (top)

Verify before use: may be inaccurate or out of date.

APP: 124.675 MHz (APP)
GCA: 123.3 MHz (PRECISION)
TWR: 120.875 MHz (TWR)

Runways (top)

06/24: 6,562 x 148 ft (2,000 x 45 m) — paved — lighted

Latest comments (top)

No comments yet for Kbely Air Base

More... (top)

See also NOTAMs and nearby airports and navaids, or visit the Kbely Air Base page at the main OurAirports website..